Skip Page Navigation
NASA JPL Caltech
NASA Logo - Jet Propulsion Laboratory + View the NASA Portal
+ Center for Near-Earth Object Studies
JPL Home Earth Solar System Stars & Galaxies Technology
JPL Solar System Dynamics
BODIES ORBITS EPHEMERIDES TOOLS PHYSICAL DATA DISCOVERY FAQ SITE MAP
JPL Small-Body Database Browser
Search: [ help ]  
48137 (2001 FS143)
Classification: Main-belt Asteroid          SPK-ID: 2048137
Ephemeris | Orbit Diagram | Orbital Elements | Mission Design | Physical Parameters | Discovery Circumstances | Close-Approach Data ]

[ show orbit diagram ]
Orbital Elements at Epoch 2459000.5 (2020-May-31.0) TDB
Reference: JPL 20 (heliocentric ecliptic J2000)
 Element Value Uncertainty (1-sigma)   Units 
e .1217176885546903 3.9148e-08  
a 2.414044910651291 9.6412e-09 au
q 2.120212944059602 9.7121e-08 au
i 7.442689186489969 3.9301e-06 deg
node 69.24558354519526 2.8671e-05 deg
peri 299.5685105471184 3.2622e-05 deg
M 237.5839530742141 1.7982e-05 deg
tp 2459466.356645694529
(2021-Sep-08.85664569)
6.9947e-05 TDB
period 1369.986996489951
3.75
8.2072e-06
2.247e-08
d
yr
n .2627762167979385 1.5742e-09 deg/d
Q 2.70787687724298 1.0815e-08 au
  Orbit Determination Parameters
   # obs. used (total)      1219  
   data-arc span      8048 days (22.03 yr)  
   first obs. used      1998-06-26  
   last obs. used      2020-07-08  
   planetary ephem.      DE431  
   SB-pert. ephem.      SB431-N16  
   condition code      0  
   norm. resid. RMS      .52357  
   source      ORB  
   producer      Otto Matic  
   solution date      2020-Nov-12 23:38:48  

Additional Information
 Earth MOID = 1.13189 au 
 Jupiter MOID = 2.77512 au 
 T_jup = 3.496 
[ hide covariance matrix ]
Orbital Elements at Epoch 2457200.5 (2015-Jun-27.0) TDB
Reference: JPL 20 (heliocentric ecliptic J2000)
 Element Value Uncertainty (1-sigma)   Units 
e .1204175655623481 3.9044e-08  
q 2.124772698141036 9.668e-08 au
tp 2456725.712698257792
(2014-Mar-09.21269826)
6.3289e-05 TDB
node 69.31932074896987 2.8678e-05 deg
peri 299.5684635934482 3.2732e-05 deg
i 7.440089351836559 3.9278e-06 deg
  Orbit Determination Parameters
   # obs. used (total)      1219  
   data-arc span      8048 days (22.03 yr)  
   first obs. used      1998-06-26  
   last obs. used      2020-07-08  
   planetary ephem.      DE431  
   SB-pert. ephem.      SB431-N16  
   condition code      0  
   norm. resid. RMS      .52357  
   source      ORB  
   producer      Otto Matic  
   solution date      2020-Nov-12 23:38:48  

Additional Information
 Jupiter MOID = 2.77512 au 
 T_jup = 3.496 
Orbit Covariance (6×6)
  e q tp node peri i
e 1.524421162921629E-15 -3.761086609754164E-15 -2.044031633424034E-13 1.140690565112557E-14 -3.113786516885835E-14 -6.673214803365031E-16
q -3.761086609754164E-15 9.347062467667724E-15 6.828018299712762E-13 -2.715358386167734E-14 1.247848057727056E-13 1.777394912670314E-15
tp -2.044031633424034E-13 6.828018299712762E-13 4.005483146657651E-9 4.714877345807585E-12 1.012149700090868E-9 3.299443384395665E-12
node 1.140690565112557E-14 -2.715358386167734E-14 4.714877345807585E-12 8.22448726064631E-10 -8.137471558479957E-10 -2.222830511599919E-11
peri -3.113786516885835E-14 1.247848057727056E-13 1.012149700090868E-9 -8.137471558479957E-10 1.071373968795665E-9 2.28680733758692E-11
i -6.673214803365031E-16 1.777394912670314E-15 3.299443384395665E-12 -2.222830511599919E-11 2.28680733758692E-11 1.542723506371431E-11

Ephemeris | Orbit Diagram | Orbital Elements | Mission Design | Physical Parameters | Discovery Circumstances | Close-Approach Data ]

Physical Parameter Table
Parameter Symbol Value Units Sigma Reference Notes
absolute magnitude H 15.2   n/a MPO378952  

48137 (2001 FS143)          Discovered 2001-Mar-23 by LONEOS at Anderson Mesa
Reference: 20020921/Numbers.arcLast Updated: 2004-04-19

[ show close-approach data ]
Alternate Designations
 2001 FS143 = 2000 AP154 
Ephemeris | Orbit Diagram | Orbital Elements | Mission Design | Physical Parameters | Discovery Circumstances | Close-Approach Data ]
ABOUT SSD CREDITS/AWARDS PRIVACY/COPYRIGHT GLOSSARY LINKS
FirstGov 2020-Dec-05 09:34 UT
(server date/time)  
NASA Home Page
Site Manager:   Ryan S. Park
Webmaster  Alan B. Chamberlin